Home   Weather   Aliso Viejo   Past weeks

Flag for USA Past Weather in Aliso Viejo, California, USA — Yesterday and Last 2 Weeks

Now
51 °F

Passing clouds.


Feels Like: 51 °F
Forecast: 44 / 58 °F
Wind: 3 mph from North

Location: John Wayne Airport-Orange County Airport

Current Time: Feb 23, 2017 at 8:37:22 am

Latest Report: Feb 23, 2017 at 7:53 am


Visibility: 10 mi

Pressure: 30.09 "Hg

Humidity: 48%

Dew Point: 32 °F

Location of Aliso ViejoLocation

Past Weather in Aliso Viejo — Graph

°F

Aliso Viejo Temperature Yesterday

Maximum temperature yesterday: 62 °F (at 12:53 pm)
Minimum temperature yesterday: 54 °F (at 11:53 pm)
Average temperature yesterday: 58 °F

High & Low Weather Summary for the Past Weeks

 TemperatureHumidityPressure
High75 °F (Feb 12, 2:53 pm)100% (Feb 8, 11:53 pm)30.34 "Hg (Feb 8, 11:53 pm)
Low48 °F (Feb 23, 4:53 am)30% (Feb 12, 2:53 pm)29.47 "Hg (Feb 17, 3:53 pm)
Average58 °F84%30.03 "Hg
* Reported Feb 8 6:20 am — Feb 23 6:53 am, Aliso Viejo, Weather by CustomWeather, © 2017

Note: Actual official high and low records may vary slightly from our data, if they occured in-between our weather recording intervals... More about our weather records

Advertising

Aliso Viejo Weather History for the Previous 24 Hours

Scroll right to see more
 ConditionsComfort  
Time TempWeatherWind HumidityBarometerVisibility
6:53 am
Thu, Feb 23
50 °FPassing clouds.6 mph50%30.07 "Hg10 mi
5:53 am49 °FClear.No wind55%30.05 "Hg10 mi
4:53 am48 °FClear.No wind59%30.04 "Hg10 mi
3:53 am51 °FClear.No wind48%30.03 "Hg10 mi
2:53 am51 °FClear.3 mph48%30.03 "Hg10 mi
1:53 am53 °FClear.6 mph45%30.05 "Hg10 mi
12:53 am53 °FClear.5 mph48%30.05 "Hg10 mi
11:53 pm
Wed, Feb 22
54 °FClear.3 mph59%30.05 "Hg10 mi
10:53 pm55 °FClear.No wind77%30.05 "Hg10 mi
9:53 pm56 °FPassing clouds.3 mph77%30.05 "Hg10 mi
8:53 pm57 °FPassing clouds.No wind74%30.04 "Hg10 mi
7:53 pm57 °FPassing clouds.3 mph74%30.04 "Hg10 mi
6:53 pm58 °FPassing clouds.7 mph72%30.03 "Hg10 mi
5:53 pm59 °FPassing clouds.6 mph69%30.03 "Hg10 mi
4:53 pm59 °FPassing clouds.8 mph62%30.04 "Hg10 mi
3:53 pm60 °FPassing clouds.9 mph60%30.04 "Hg10 mi
2:53 pm61 °FPassing clouds.12 mph60%30.05 "Hg10 mi
1:53 pm61 °FPassing clouds.10 mph56%30.06 "Hg10 mi
12:53 pm62 °FPassing clouds.12 mph56%30.09 "Hg10 mi
11:53 am61 °FPassing clouds.10 mph60%30.11 "Hg10 mi
10:53 am61 °FScattered clouds.9 mph65%30.13 "Hg10 mi
9:53 am61 °FBroken clouds.8 mph65%30.14 "Hg10 mi
8:53 am60 °FScattered clouds.6 mph69%30.14 "Hg10 mi
Weather by CustomWeather, © 2017

See weather overviewHow to use our weather pages